[[{"header":{"parameterUnit":"m.s-1","parameterCategory":1,"la1":30.2991,"la2":30.254,"lo1":-89.0895,"lo2":-89.0444,"dy":0.0017,"dx":0.0017,"nx":28,"ny":28,"refTime":"2024-07-10T21:00:00:Z","depth":0,"parameterNumber":2,"parameterNumberName":"U-component_of_WINDS"},"data":[0,0,0,0,0,0,0,0,0,0,0,0,0,0,0,0,0,0,0,0,0,0,0,0,0,0,0,0,0,0,0,0,0,0,0,0,0,0,0,0,0,0,0,0,0,0,0,0,0,0,0,0,0,0,0,0,0,0,-1.6082,-1.608,0,-1.5957,-1.5956,-1.5954,-1.5838,-1.5836,-1.5835,-1.5834,-1.5709,-1.5707,-1.5705,0,0,0,0,0,0,0,0,0,0,0,0,0,-1.622,-1.6218,-1.6082,-1.608,-1.6079,-1.5958,-1.5956,-1.5954,-1.5838,-1.5836,-1.5835,-1.5833,-1.5709,-1.5707,-1.5705,0,0,0,0,0,0,0,0,0,0,0,0,0,-1.6134,-1.6217,-1.6082,-1.6006,-1.5998,-1.5958,-1.5956,-1.5954,-1.5839,-1.5836,-1.5834,-1.5832,-1.571,-1.5707,-1.5704,-1.573,0,0,-1.5695,-1.5694,0,0,0,0,0,0,0,0,-1.6139,-1.6129,-1.6019,-1.6011,-1.6002,-1.5911,-1.5958,-1.5879,-1.5839,-1.5899,-1.5834,-1.5831,-1.5778,-1.5769,-1.5751,-1.5724,-1.5719,-1.5695,-1.5693,-1.5692,-1.5691,0,0,0,0,0,0,0,-1.6145,-1.6134,-1.6032,-1.6017,-1.6007,-1.5979,-1.5964,-1.5943,-1.5852,-1.5894,-1.5885,-1.5872,-1.5773,-1.5754,-1.5747,-1.5717,-1.5695,-1.5692,-1.5691,-1.5689,-1.5703,-1.5705,0,0,0,0,0,0,-1.6163,-1.614,-1.6036,-1.6029,-1.6067,-1.5978,-1.5962,-1.5942,-1.5852,-1.5836,-1.5874,-1.5867,-1.576,-1.5751,-1.5742,-1.5765,-1.5692,-1.5689,-1.5687,-1.5701,-1.5704,-1.5706,0,0,0,0,0,0,-1.6166,-1.6155,-1.6041,-1.6082,-1.6065,-1.5978,-1.5957,-1.5941,-1.5922,-1.5837,-1.5821,-1.5871,-1.5758,-1.5746,-1.5733,-1.5759,-1.5688,-1.5685,-1.5699,-1.5702,-1.5705,-1.5812,0,0,0,0,0,0,-1.6171,-1.6156,-1.6165,-1.6083,-1.6063,-1.6035,-1.5959,-1.594,-1.5917,-1.5907,-1.583,-1.5815,-1.5755,-1.5738,-1.573,-1.5754,-1.5683,-1.5696,-1.57,-1.5704,-1.5806,-1.5818,-1.5829,0,0,0,0,0,-1.6176,-1.6201,-1.6166,-1.6154,-1.6072,-1.6036,-1.6025,-1.5955,-1.5919,-1.5927,-1.5873,-1.5818,-1.5758,-1.5738,-1.5728,-1.5751,-1.5694,-1.5699,-1.5704,-1.58,-1.5816,-1.5829,0,0,0,0,0,0,-1.6289,-1.6189,-1.6149,-1.6148,-1.6102,-1.6017,-1.6024,-1.5974,-1.5937,-1.5929,-1.5844,-1.5828,-1.5825,-1.5786,-1.5766,-1.577,-1.5718,-1.5721,-1.5795,-1.5809,-1.5821,-1.583,-1.568,0,0,0,0,0,-1.6314,-1.6293,-1.6206,-1.6214,-1.6192,-1.6113,-1.6095,-1.6044,-1.5993,-1.5973,-1.5917,-1.587,-1.584,-1.5823,-1.5791,-1.58,-1.5781,-1.581,-1.5822,-1.5832,-1.5836,-1.5837,-1.5849,-1.5722,-1.5722,-1.5722,0,0,-1.6365,-1.6307,-1.6299,-1.6235,-1.6193,-1.6173,-1.6097,-1.6079,-1.6064,-1.597,-1.5954,-1.5912,-1.5854,-1.5852,-1.5848,-1.582,-1.5867,-1.5839,-1.5847,-1.5845,-1.5843,-1.5855,-1.5866,-1.5725,-1.5725,-1.5724,0,0,-1.6448,-1.6402,-1.6403,-1.6362,-1.6299,-1.6246,-1.6247,-1.6169,-1.6137,-1.6119,-1.6049,-1.6029,-1.598,-1.5941,-1.5915,-1.5983,-1.593,-1.5975,-1.6036,-1.6038,-1.6048,-1.6056,-1.608,-1.6089,-1.5979,-1.5979,-1.5979,0,-1.6519,-1.6486,-1.641,-1.6396,-1.6369,-1.6283,-1.6283,-1.6248,-1.6179,-1.6162,-1.6132,-1.6067,-1.6022,-1.6009,-1.6025,-1.6008,-1.6005,-1.5983,-1.6053,-1.606,-1.6067,-1.6088,-1.6097,-1.5985,-1.5984,-1.5983,-1.5983,0,-1.6576,-1.6554,-1.6562,-1.6496,-1.6471,-1.6464,-1.6388,-1.6371,-1.6323,-1.6274,-1.6257,-1.6199,-1.6154,-1.6147,-1.6101,-1.6128,-1.6112,-1.6068,-1.6014,-1.6086,-1.6105,-1.6112,-1.5993,-1.5991,-1.5989,-1.5988,0,0,-1.6726,-1.6618,-1.6622,-1.6591,-1.6515,-1.6496,-1.6486,-1.6441,-1.6428,-1.6383,-1.6372,-1.6332,-1.6291,-1.6261,-1.621,-1.6212,-1.6268,-1.6167,-1.6165,-1.6187,-1.6293,-1.6325,-1.6336,-1.6233,-1.6234,-1.6235,-1.6297,0,-1.6795,-1.677,-1.6702,-1.6698,-1.6676,-1.6594,-1.6585,-1.6538,-1.6491,-1.6467,-1.6415,-1.6388,-1.6336,-1.6317,-1.6316,-1.6261,-1.6288,-1.6256,-1.6222,-1.6221,-1.6238,-1.6346,-1.638,-1.6442,-1.6304,-1.6305,-1.6306,0,-1.6873,-1.6832,-1.6826,-1.675,-1.6739,-1.6732,-1.6684,-1.6661,-1.6606,-1.6572,-1.6539,-1.6482,-1.6466,-1.6417,-1.6394,-1.6374,-1.6356,-1.6327,-1.6328,-1.6321,-1.6268,-1.6342,-1.646,-1.6469,-1.6317,-1.6316,-1.6315,0,-1.6982,-1.6925,-1.6914,-1.689,-1.6802,-1.6799,-1.6762,-1.6704,-1.6681,-1.664,-1.6624,-1.6583,-1.656,-1.6529,-1.6462,-1.6432,-1.6446,-1.6391,-1.6417,-1.6419,-1.6424,-1.6424,-1.654,-1.6414,-1.6414,-1.6414,-1.6413,0,-1.7065,-1.7065,-1.6962,-1.6955,-1.6952,-1.6873,-1.6872,-1.6828,-1.6777,-1.676,-1.6688,-1.6674,-1.6586,-1.6562,-1.651,-1.6498,-1.6489,-1.6461,-1.6447,-1.6467,-1.647,-1.6453,-1.6447,-1.6416,-1.6415,-1.6415,-1.6415,0,-1.7186,-1.7117,-1.7099,-1.7017,-1.6997,-1.6998,-1.6927,-1.6918,-1.6867,-1.6846,-1.6837,-1.6757,-1.6725,-1.6655,-1.6605,-1.6569,-1.6571,-1.6546,-1.6589,-1.658,-1.661,-1.6608,-1.6718,-1.6728,-1.6597,-1.6599,-1.66,0,-1.7244,-1.7241,-1.7158,-1.7141,-1.7107,-1.7081,-1.7057,-1.698,-1.6958,-1.6894,-1.6893,-1.6854,-1.682,-1.6772,-1.671,-1.6671,-1.6644,-1.6685,-1.6637,-1.6657,-1.6643,-1.6644,-1.6643,-1.6696,-1.6697,-1.6699,-1.67,0,-1.7353,-1.7318,-1.7286,-1.7242,-1.7215,-1.7177,-1.7134,-1.7125,-1.7037,-1.7016,-1.6982,-1.6955,-1.6903,-1.6866,-1.6817,-1.6779,-1.6725,-1.6716,-1.6719,-1.6739,-1.6764,-1.675,-1.6617,-1.6713,-1.6712,-1.6711,-1.671,-1.671,-1.7442,-1.7436,-1.7377,-1.7343,-1.7303,-1.7265,-1.7251,-1.7198,-1.7168,-1.7119,-1.7076,-1.7045,-1.699,-1.6918,-1.6884,-1.686,-1.6833,-1.6839,-1.684,-1.6842,-1.685,-1.6769,-1.6851,-1.685,-1.685,-1.6849,-1.6849,0,-1.7547,-1.7504,-1.7474,-1.7417,-1.739,-1.7341,-1.7292,-1.7273,-1.7247,-1.72,-1.7167,-1.7127,-1.7091,-1.7026,-1.6984,-1.6977,-1.6951,-1.6969,-1.6968,-1.696,-1.6877,-1.6878,-1.699,-1.699,-1.699,-1.699,-1.699,-1.699,-1.7598,-1.7584,-1.7543,-1.7508,-1.7466,-1.7435,-1.7411,-1.7376,-1.7337,-1.7296,-1.7265,-1.7223,-1.7168,-1.7122,-1.7086,-1.7068,-1.7056,-1.7081,-1.7055,-1.6979,-1.6966,-1.6953,-1.6953,-1.7079,-1.7079,-1.7139,-1.714,-1.714]},{"header":{"parameterUnit":"m.s-1","parameterCategory":1,"la1":30.2991,"la2":30.254,"lo1":-89.0895,"lo2":-89.0444,"dy":0.0017,"dx":0.0017,"nx":28,"ny":28,"refTime":"2024-07-10T21:00:00:Z","depth":0,"parameterNumber":3,"parameterNumberName":"V-component_of_WINDS"},"data":[0,0,0,0,0,0,0,0,0,0,0,0,0,0,0,0,0,0,0,0,0,0,0,0,0,0,0,0,0,0,0,0,0,0,0,0,0,0,0,0,0,0,0,0,0,0,0,0,0,0,0,0,0,0,0,0,0,0,2.7836,2.7834,0,2.7627,2.7625,2.7622,2.7548,2.7549,2.7549,2.755,2.7322,2.7316,2.7309,0,0,0,0,0,0,0,0,0,0,0,0,0,2.8158,2.8153,2.7836,2.7834,2.7831,2.7627,2.7624,2.7622,2.7548,2.7549,2.755,2.7551,2.7325,2.7317,2.7308,0,0,0,0,0,0,0,0,0,0,0,0,0,2.799,2.8151,2.7837,2.777,2.7762,2.7628,2.7624,2.7621,2.7547,2.7549,2.755,2.7551,2.7327,2.7317,2.7307,2.722,0,0,2.7276,2.7272,0,0,0,0,0,0,0,0,2.8,2.7978,2.7782,2.7774,2.7765,2.7615,2.7654,2.7486,2.7547,2.7628,2.755,2.7552,2.7418,2.74,2.7358,2.721,2.72,2.7275,2.7269,2.7265,2.7262,0,0,0,0,0,0,0,2.8012,2.7987,2.7753,2.778,2.7769,2.7746,2.7723,2.7622,2.7518,2.7621,2.7616,2.7593,2.7413,2.7368,2.7352,2.7196,2.7275,2.7266,2.726,2.7256,2.6961,2.696,0,0,0,0,0,0,2.8036,2.7997,2.776,2.7747,2.7888,2.7739,2.7714,2.7662,2.752,2.7499,2.7592,2.759,2.7385,2.7364,2.7344,2.7229,2.7265,2.7255,2.7249,2.6963,2.6961,2.6959,0,0,0,0,0,0,2.8044,2.8016,2.7768,2.787,2.7837,2.7733,2.7674,2.7657,2.7612,2.7497,2.7477,2.7566,2.7385,2.7358,2.7251,2.7221,2.725,2.7241,2.6965,2.6962,2.696,2.7003,0,0,0,0,0,0,2.8053,2.8019,2.7988,2.787,2.7832,2.7684,2.7673,2.7652,2.7596,2.7592,2.7467,2.7448,2.7384,2.7267,2.7241,2.7207,2.7233,2.6967,2.6964,2.6961,2.7003,2.7002,2.7,0,0,0,0,0,2.8065,2.8006,2.7987,2.7959,2.7792,2.7682,2.766,2.7592,2.7594,2.7559,2.7486,2.7452,2.7229,2.7257,2.7227,2.7189,2.6969,2.6965,2.6961,2.7004,2.7002,2.7001,0,0,0,0,0,0,2.8119,2.799,2.7967,2.787,2.7788,2.767,2.7625,2.7592,2.7505,2.7504,2.7419,2.7391,2.729,2.7229,2.7263,2.7096,2.7096,2.7086,2.7139,2.7136,2.7135,2.715,2.7225,0,0,0,0,0,2.8121,2.8047,2.7936,2.786,2.7821,2.7731,2.768,2.7635,2.7545,2.7509,2.7427,2.7337,2.7246,2.7188,2.7099,2.6995,2.6964,2.6954,2.6953,2.6952,2.6943,2.6879,2.6872,2.6947,2.6947,2.6947,0,0,2.8121,2.8041,2.7999,2.7869,2.7801,2.7721,2.7702,2.7619,2.7557,2.7494,2.7389,2.7326,2.722,2.7114,2.7063,2.706,2.6916,2.6947,2.6948,2.6939,2.6875,2.6868,2.6862,2.6944,2.6945,2.6945,0,0,2.8081,2.8015,2.7944,2.7876,2.7774,2.7714,2.7697,2.7584,2.7541,2.7435,2.7385,2.7309,2.7156,2.7081,2.7023,2.6954,2.6918,2.6927,2.6918,2.6857,2.6851,2.6845,2.6817,2.6808,2.692,2.692,2.692,0,2.8093,2.7976,2.791,2.783,2.7772,2.7716,2.764,2.7576,2.7448,2.7407,2.7407,2.7213,2.7137,2.7011,2.6995,2.6951,2.6924,2.694,2.6858,2.6852,2.6845,2.6817,2.6807,2.6921,2.6921,2.6921,2.6921,0,2.7994,2.7913,2.7867,2.7749,2.7686,2.7609,2.7526,2.747,2.743,2.7368,2.7258,2.7167,2.7056,2.7024,2.6982,2.689,2.6891,2.6876,2.6874,2.6841,2.6813,2.6802,2.6923,2.6923,2.6922,2.6922,0,0,2.7981,2.7828,2.7812,2.7757,2.7639,2.7573,2.7491,2.7387,2.7338,2.7252,2.7177,2.7049,2.7034,2.6968,2.6918,2.6865,2.6811,2.6855,2.6851,2.6847,2.6699,2.6709,2.6698,2.6788,2.6786,2.6784,2.6706,0,2.7923,2.7779,2.7716,2.7598,2.7519,2.7464,2.7392,2.731,2.725,2.7171,2.7103,2.7012,2.7001,2.6961,2.6906,2.683,2.678,2.6835,2.6712,2.6709,2.6738,2.6683,2.6694,2.6625,2.6695,2.6694,2.6692,0,2.7836,2.7753,2.7628,2.7518,2.7483,2.742,2.7318,2.7245,2.7149,2.7108,2.7036,2.6988,2.6894,2.6902,2.6768,2.6807,2.6753,2.6708,2.6703,2.6686,2.6696,2.6661,2.6602,2.659,2.6675,2.6676,2.6677,0,2.7835,2.7691,2.7597,2.7552,2.7422,2.7378,2.7321,2.7227,2.7168,2.7077,2.7037,2.6936,2.6879,2.68,2.6724,2.6737,2.6596,2.6598,2.6555,2.6557,2.6525,2.6527,2.6453,2.6497,2.6497,2.6497,2.6497,0,2.7775,2.7699,2.7595,2.7536,2.7449,2.7376,2.729,2.7228,2.7144,2.7069,2.7015,2.6944,2.685,2.6767,2.6706,2.6603,2.6578,2.6539,2.6523,2.6542,2.6546,2.6502,2.6504,2.6494,2.6495,2.6496,2.6496,0,2.7757,2.7685,2.7578,2.7465,2.7435,2.7375,2.7275,2.7214,2.7152,2.7058,2.7031,2.6932,2.683,2.6748,2.6614,2.6573,2.6463,2.6447,2.6497,2.6488,2.6448,2.6452,2.634,2.632,2.6382,2.6381,2.6381,0,2.7722,2.7664,2.7545,2.7493,2.7438,2.7355,2.7294,2.7219,2.7158,2.7043,2.6994,2.689,2.6802,2.6642,2.6554,2.6451,2.6429,2.6397,2.6412,2.6432,2.6423,2.6426,2.6418,2.6394,2.6394,2.6394,2.6394,0,2.7666,2.7633,2.7552,2.7456,2.7387,2.7307,2.7225,2.7184,2.7093,2.7026,2.6924,2.6857,2.6721,2.6616,2.6503,2.6439,2.6398,2.639,2.6374,2.639,2.642,2.6399,2.6489,2.6392,2.6392,2.6392,2.6392,2.6392,2.7636,2.758,2.7488,2.7397,2.7329,2.7253,2.719,2.7121,2.7036,2.6922,2.6882,2.6776,2.6676,2.6522,2.6457,2.6369,2.6365,2.6343,2.6336,2.6331,2.6331,2.6438,2.6349,2.6349,2.6348,2.6348,2.6348,0,2.7574,2.7512,2.743,2.7319,2.7246,2.7221,2.7128,2.7068,2.6977,2.689,2.6806,2.6686,2.6583,2.6489,2.6381,2.6328,2.6307,2.6302,2.6303,2.6287,2.6343,2.6366,2.6321,2.6321,2.6321,2.6321,2.6321,2.6321,2.7533,2.7436,2.7392,2.7258,2.7195,2.7094,2.7043,2.6971,2.6902,2.6772,2.6688,2.6629,2.6537,2.6422,2.6325,2.6299,2.6259,2.6259,2.6228,2.628,2.6284,2.6288,2.6309,2.6252,2.6252,2.6179,2.6178,2.6177]}]]